WA3JKB Weather Reports


time (UTC)temp
C
wind
direction
speed
KPH
gust
KPH
rain 1hr
cm
rain 24hr
cm
rain mn
cm
humidity
%
barometer
mb
20260506212017 19 270 3.2 11.3 0.00 0.53 0.53 84 1008.2
20260506211017 19 248 3.2 9.7 0.00 0.53 0.53 84 1008.1
20260506210017 19 248 1.6 8.0 0.00 0.53 0.53 86 1008.0
20260506205018 18 0.0 4.8 0.00 0.53 0.53 87 1008.0
20260506204017 18 225 1.6 6.4 0.00 0.53 0.53 87 1008.1
20260506203017 18 248 1.6 4.8 0.00 0.53 0.53 88 1008.0
20260506202017 18 270 1.6 6.4 0.00 0.53 0.53 88 1007.9
20260506201017 17 293 1.6 4.8 0.00 0.53 0.53 89 1007.9
20260506200017 17 270 1.6 9.7 0.00 0.53 0.53 88 1008.0
20260506195017 17 203 1.6 6.4 0.00 0.53 0.53 90 1008.1
20260506194017 17 270 1.6 12.9 0.00 0.53 0.53 90 1008.3
20260506193017 17 270 3.2 17.7 0.00 0.53 0.53 90 1008.3
20260506192018 17 270 3.2 6.4 0.00 0.53 0.53 91 1008.2
20260506191017 16 248 3.2 12.9 0.00 0.53 0.53 91 1008.4
20260506190018 16 225 3.2 17.7 0.00 0.53 0.53 91 1008.5
20260506185017 16 248 4.8 12.9 0.00 0.53 0.53 92 1008.6
20260506184017 16 248 1.6 11.3 0.00 0.53 0.53 92 1008.7
20260506183017 16 248 8.0 24.1 0.00 0.53 0.53 92 1008.8
20260506182017 16 270 3.2 9.7 0.00 0.53 0.53 92 1008.9
20260506181018 16 315 3.2 9.7 0.00 0.53 0.53 92 1008.9
20260506180017 16 293 3.2 11.3 0.00 0.53 0.53 92 1008.9
20260506175017 16 270 4.8 20.9 0.00 0.53 0.53 92 1008.9
20260506174017 16 248 3.2 9.7 0.00 0.53 0.53 92 1009.0
20260506173016 16 293 3.2 9.7 0.00 0.53 0.53 92 1009.0
20260506172017 16 270 3.2 14.5 0.03 0.53 0.53 93 1009.0
20260506171017 16 270 3.2 12.9 0.03 0.53 0.53 93 1009.1
20260506170017 16 248 3.2 11.3 0.05 0.53 0.53 93 1009.2
20260506165017 16 248 3.2 14.5 0.08 0.53 0.53 93 1009.2
20260506164018 16 270 3.2 9.7 0.13 0.53 0.53 93 1009.1
20260506163016 16 225 3.2 19.3 0.18 0.53 0.53 93 1009.1
20260506162016 16 293 4.8 14.5 0.23 0.51 0.51 93 1009.2
20260506161017 16 270 3.2 11.3 0.28 0.51 0.51 93 1009.2
20260506160017 16 293 1.6 6.4 0.33 0.48 0.48 93 1009.7
20260506155016 16 270 1.6 11.3 0.36 0.46 0.46 93 1010.2
20260506154016 16 293 3.2 8.0 0.33 0.41 0.41 92 1010.4
20260506153017 16 270 1.6 9.7 0.30 0.36 0.36 92 1010.4
20260506152017 16 293 1.6 9.7 0.23 0.28 0.28 91 1010.4
20260506151017 16 248 1.6 8.0 0.20 0.23 0.23 90 1010.2
20260506150016 16 225 1.6 4.8 0.15 0.15 0.15 89 1010.0
20260506145017 16 293 1.6 9.7 0.10 0.10 0.10 89 1010.1
20260506144016 16 293 1.6 11.3 0.08 0.08 0.08 88 1010.2
20260506143016 16 270 1.6 6.4 0.05 0.05 0.05 88 1010.1
20260506142018 17 293 3.2 9.7 0.05 0.05 0.05 86 1010.2
20260506141016 17 248 1.6 8.0 0.03 0.03 0.03 83 1010.4
20260506140017 17 270 4.8 14.5 0.00 0.00 0.00 81 1010.2
20260506135016 17 270 3.2 20.9 0.00 0.00 0.00 80 1010.2
20260506134017 18 270 4.8 20.9 0.00 0.00 0.00 79 1010.2
20260506133016 18 293 1.6 8.0 0.00 0.00 0.00 79 1010.1
20260506132016 18 270 3.2 9.7 0.00 0.00 0.00 78 1010.3
20260506131016 18 293 3.2 8.0 0.00 0.00 0.00 77 1010.3
20260506130017 18 270 4.8 29.0 0.00 0.00 0.00 77 1010.4
20260506125017 18 248 3.2 16.1 0.00 0.00 0.00 77 1010.5
20260506124016 18 270 3.2 9.7 0.00 0.00 0.00 77 1010.6
20260506123016 18 293 3.2 11.3 0.00 0.00 0.00 77 1010.3
20260506122017 18 293 4.8 12.9 0.00 0.00 0.00 77 1010.4
20260506121016 18 270 4.8 17.7 0.00 0.00 0.00 77 1010.3
20260506120016 18 270 3.2 11.3 0.00 0.00 0.00 77 1010.1
20260506115016 18 315 4.8 19.3 0.00 0.00 0.00 78 1010.0
20260506114016 18 248 4.8 14.5 0.00 0.00 0.00 78 1010.1
20260506113022 18 270 6.4 17.7 0.00 0.00 0.00 78 1009.9
20260506112016 18 293 4.8 9.7 0.00 0.00 0.00 78 1010.0
20260506111018 18 270 3.2 8.0 0.00 0.00 0.00 78 1009.9
20260506110016 18 293 3.2 14.5 0.00 0.00 0.00 78 1010.0
20260506105016 18 293 3.2 12.9 0.00 0.00 0.00 78 1010.0
20260506104017 18 293 4.8 14.5 0.00 0.00 0.00 78 1009.9
20260506103017 18 293 3.2 9.7 0.00 0.00 0.00 77 1009.9
20260506102016 18 248 3.2 8.0 0.00 0.00 0.00 77 1009.9
20260506101016 18 270 4.8 12.9 0.00 0.00 0.00 76 1009.8
20260506100016 18 270 3.2 9.7 0.00 0.00 0.00 76 1009.9
20260506095016 18 293 3.2 16.1 0.00 0.00 0.00 75 1009.9
20260506094016 18 293 3.2 14.5 0.00 0.00 0.00 75 1009.9
20260506093017 18 293 3.2 9.7 0.00 0.00 0.00 74 1010.0
20260506092016 18 270 6.4 16.1 0.00 0.00 0.00 74 1009.9
20260506091016 18 270 4.8 19.3 0.00 0.00 0.00 74 1009.9
20260506090016 18 270 4.8 17.7 0.00 0.00 0.00 75 1010.0
20260506085016 18 270 3.2 14.5 0.00 0.00 0.00 75 1010.0
20260506084016 18 270 3.2 11.3 0.00 0.00 0.00 75 1010.0
20260506083016 18 270 1.6 8.0 0.00 0.00 0.00 76 1010.0
20260506082017 18 293 3.2 8.0 0.00 0.00 0.00 75 1010.1
20260506081016 18 293 3.2 12.9 0.00 0.00 0.00 75 1010.1
20260506073016 18 293 3.2 9.7 0.00 0.00 0.00 74 1010.4
20260506072016 18 293 4.8 24.1 0.00 0.00 0.00 74 1010.4
20260506071016 19 135 1.6 8.0 0.00 0.00 0.00 73 1010.5
20260506062016 19 293 3.2 8.0 0.00 0.00 0.00 70 1010.8
20260506061016 19 270 3.2 12.9 0.00 0.00 0.00 69 1010.8
20260506051017 19 293 1.6 8.0 0.00 0.00 0.00 66 1011.2
20260506045016 19 0.0 1.6 0.00 0.00 0.00 66 1011.2
20260506044015 19 293 1.6 8.0 0.00 0.00 0.00 65 1011.2
20260506043015 19 0.0 3.2 0.00 0.00 0.00 65 1011.3
20260506042015 20 293 1.6 3.2 0.00 0.00 0.00 64 1011.3
20260506041016 20 338 1.6 4.8 0.00 0.00 0.00 63 1011.2
20260506040016 20 248 1.6 6.4 0.00 0.00 0.00 61 1011.3
20260506035015 20 293 1.6 6.4 0.00 0.00 0.00 61 1011.3
20260506034015 20 248 1.6 8.0 0.00 0.00 0.00 60 1011.2
20260506033015 21 270 3.2 8.0 0.00 0.00 0.00 59 1011.1
20260506032015 21 293 3.2 9.7 0.00 0.00 0.00 59 1011.1
20260506031015 21 293 1.6 8.0 0.00 0.00 0.00 58 1011.1
20260506030015 21 293 4.8 12.9 0.00 0.00 0.00 58 1011.1
20260506025017 21 293 3.2 6.4 0.00 0.00 0.00 57 1011.1
20260506024016 21 293 3.2 8.0 0.00 0.00 0.00 56 1011.2
20260506023015 21 293 3.2 11.3 0.00 0.00 0.00 56 1011.3
20260506022015 21 293 3.2 11.3 0.00 0.00 0.00 55 1011.3
20260506021016 21 293 3.2 6.4 0.00 0.00 0.00 54 1011.1
20260506020015 22 293 1.6 6.4 0.00 0.00 0.00 53 1011.0
20260506015016 22 293 1.6 11.3 0.00 0.00 0.00 52 1010.8
20260506014015 22 293 1.6 6.4 0.00 0.00 0.00 52 1010.9
20260506013015 22 270 3.2 12.9 0.00 0.00 0.00 51 1010.8
20260506012015 22 293 3.2 9.7 0.00 0.00 0.00 50 1010.7
20260506011015 22 293 3.2 8.0 0.00 0.00 0.00 49 1010.5
20260506010015 23 113 3.2 20.9 0.00 0.00 0.00 48 1010.4
20260506005015 23 180 3.2 14.5 0.00 0.00 0.00 47 1010.3
20260506004016 23 293 4.8 11.3 0.00 0.00 0.00 46 1010.3
20260506003015 23 293 3.2 11.3 0.00 0.00 0.00 46 1010.2
20260506002015 23 315 1.6 4.8 0.00 0.00 0.00 44 1010.1
20260506001016 24 270 3.2 8.0 0.00 0.00 0.00 43 1010.0
20260506000015 24 293 1.6 9.7 0.00 0.00 0.00 42 1009.9
20260505235015 25 248 3.2 22.5 0.00 0.00 0.00 41 1009.8
20260505234015 25 270 3.2 12.9 0.00 0.00 0.00 41 1009.7
20260505233017 25 180 4.8 14.5 0.00 0.00 0.00 40 1009.6
20260505232017 25 248 6.4 17.7 0.00 0.00 0.00 40 1009.7
20260505231017 25 270 4.8 17.7 0.00 0.00 0.00 40 1009.6
20260505230017 25 270 6.4 16.1 0.00 0.00 0.00 39 1009.6
20260505225017 26 270 6.4 20.9 0.00 0.00 0.00 39 1009.5
20260505224015 26 270 3.2 12.9 0.00 0.00 0.00 40 1009.5
20260505223017 26 270 4.8 12.9 0.00 0.00 0.00 39 1009.6
20260505222017 26 270 6.4 17.7 0.00 0.00 0.00 39 1009.6
20260505221017 26 270 6.4 16.1 0.00 0.00 0.00 38 1009.6
20260505220017 27 248 6.4 22.5 0.00 0.00 0.00 37 1009.5
20260505215018 27 225 4.8 16.1 0.00 0.00 0.00 37 1009.6
20260505214017 27 293 6.4 20.9 0.00 0.00 0.00 37 1009.4
20260505213017 27 293 6.4 27.4 0.00 0.00 0.00 37 1009.5